Regional Weather Roundup
Issued by NWS

Home | Current Version | Previous Version | Graphics & Text | Print | Product List | Glossary On
Versions: 1 2 3 4 5 6 7 8 9 10 11 12 13 14 15 16 17 18 19 20 21 22 23 24 25 26 27 28 29 30 31 32 33 34 35 36 37 38 39 40 41 42 43 44 45 46 47 48 49 50
758
ASUS44 KLIX 212101
RWRLA
LOUISIANA WEATHER ROUNDUP
NATIONAL WEATHER SERVICE NEW ORLEANS LA
300 PM CST SUN DEC 21 2014

NOTE: "FAIR" INDICATES FEW OR NO CLOUDS BELOW 12,000 FEET WITH NO
      SIGNIFICANT WEATHER AND/OR OBSTRUCTIONS TO VISIBILITY.
      SKY/WX - SKY CONDITION AND SIGNIFICANT WEATHER.
      TMP - AIR TEMPERATURE.    DP   - DEWPOINT TEMPERATURE.
      RH  - RELATIVE HUMIDITY.  PRES - PRESSURE.
      HX  - HEAT INDEX.         WCI  - WIND CHILL INDEX.

*  THESE STATIONS ARE NOT NWS OR FAA STATIONS AND ARE NOT UNDER
   NWS QUALITY CONTROL.

LAZ040-048-061>063-065-066-069-212200-
SOUTHEAST LOUISIANA

CITY           SKY/WX    TMP DP  RH WIND       PRES   REMARKS
N.O. AUDUBON     N/A     58  53  81 MISG        N/A
N.O. INTL ARPT CLOUDY    58  51  78 NE5       30.02S
N.O. LAKEFRONT CLOUDY    58  51  78 E7        30.01F
N.O. DOWNTOWN* MOCLDY    57  48  72 CALM      30.02S
SLIDELL        CLOUDY    59  51  75 S8        30.01F
BATON ROUGE    CLOUDY    60  49  66 S3        30.01F
BOOTHVILLE     CLOUDY    58  55  90 N6        30.02R
BELLE CHASSE   CLOUDY    60  52  74 E6        29.99F
BOGALUSA*        N/A     63  50  64 SE3       30.02F
GALLIANO*      NOT AVBL
NEW ROADS*     NOT AVBL
GONZALES*      NOT AVBL
HAMMOND*       NOT AVBL
HOUMA*         CLOUDY    57  54  88 NE5       30.01F
PORT FOURCHON* PTCLDY    59  55  88 N9        30.03S

$$

LAZ041-044-053-054-212200-
SOUTHWEST LOUISIANA

CITY           SKY/WX    TMP DP  RH WIND       PRES   REMARKS
LAKE CHARLES   CLOUDY    52  48  86 CALM      30.01F
LAFAYETTE      CLOUDY    53  49  86 VRB3      30.02F
PATTERSON      CLOUDY    57  52  82 E5        30.02F
SALT POINT       N/A     58  51  78 CALM      30.00F
NEW IBERIA     CLOUDY    55  50  83 CALM      30.02F
CHENAULT AIRPK CLOUDY    52  48  87 NE3       30.01  FOG

$$

LAZ027-028-212200-
CENTRAL LOUISIANA

CITY           SKY/WX    TMP DP  RH WIND       PRES   REMARKS
FORT POLK      NOT AVBL
ALEXANDRIA INT SUNNY     55  48  77 SE9       30.00S
ALEXANDRIA     SUNNY     55  47  74 S7        30.00F

$$

LAZ001-002-212200-
NORTHWEST LOUISIANA

CITY           SKY/WX    TMP DP  RH WIND       PRES   REMARKS
SHREVEPORT     MOSUNNY   59  45  59 S6        29.96F
BARKSDALE AFB  NOT AVBL
DTN SHREVEPORT SUNNY     57  43  59 SE9       29.96F

$$

LAZ014-016-212200-
NORTHEAST LOUISIANA

CITY           SKY/WX    TMP DP  RH WIND       PRES   REMARKS
MONROE         SUNNY     60  44  55 E6        30.01F
TALLULAH       SUNNY     61  46  57 SE6       30.00F

$$




USA.gov is the U.S. government's official web portal to all federal, state and local government web resources and services.